| time (UTC) | temp F | wind direction | speed MPH | gust MPH | rain 1hr in | rain 24hr in | rain mn in | humidity % | barometer mb |
| 20260503005202 | 79 | 32 | 1.0 | 3.0 | 0.00 | 0.00 | 0.00 | 70 | 1018.0 |
| 20260503004201 | 78 | 54 | 2.0 | 5.0 | 0.00 | 0.00 | 0.00 | 70 | 1018.1 |
| 20260503003200 | 77 | 195 | 2.0 | 4.0 | 0.00 | 0.00 | 0.00 | 70 | 1018.2 |
| 20260503002159 | 77 | 128 | 2.0 | 6.0 | 0.00 | 0.00 | 0.00 | 70 | 1018.1 |
| 20260503001133 | 77 | 131 | 2.0 | 7.0 | 0.00 | 0.00 | 0.00 | 70 | 1018.4 |
| 20260502235838 | 77 | 90 | 1.0 | 4.0 | 0.00 | 0.00 | 0.00 | 70 | 1018.6 |
| 20260502234837 | 76 | 88 | 2.0 | 4.0 | 0.00 | 0.00 | 0.00 | 70 | 1018.5 |
| 20260502233837 | 76 | 52 | 1.0 | 6.0 | 0.00 | 0.00 | 0.00 | 70 | 1018.5 |
| 20260502233520 | 76 | 139 | 6.0 | 6.0 | 0.00 | 0.00 | 0.00 | 70 | 1018.5 |
| 20260502232828 | 76 | 64 | 1.0 | 4.0 | 0.00 | 0.00 | 0.00 | 70 | 1018.5 |
| 20260502231827 | 75 | 217 | 1.0 | 4.0 | 0.00 | 0.00 | 0.00 | 70 | 1018.5 |
| 20260502230826 | 75 | 72 | 0.0 | 4.0 | 0.00 | 0.00 | 0.00 | 70 | 1018.5 |
| 20260502225825 | 74 | 101 | 1.0 | 4.0 | 0.00 | 0.00 | 0.07 | 70 | 1018.5 |
| 20260502223823 | 74 | 88 | 3.0 | 7.0 | 0.00 | 0.00 | 0.07 | 70 | 1018.3 |
| 20260502222822 | 73 | 130 | 4.0 | 4.0 | 0.00 | 0.00 | 0.07 | 70 | 1018.3 |
| 20260502221821 | 73 | 118 | 1.0 | 4.0 | 0.00 | 0.00 | 0.07 | 70 | 1018.4 |
| 20260502214817 | 72 | 123 | 3.0 | 4.0 | 0.00 | 0.00 | 0.07 | 70 | 1018.2 |
| 20260502213816 | 72 | 82 | 2.0 | 4.0 | 0.00 | 0.00 | 0.07 | 70 | 1017.9 |
| 20260502212815 | 72 | 158 | 1.0 | 5.0 | 0.00 | 0.00 | 0.07 | 70 | 1018.2 |
| 20260502211814 | 72 | 88 | 1.0 | 4.0 | 0.00 | 0.00 | 0.07 | 70 | 1018.1 |
| 20260502210813 | 72 | 291 | 1.0 | 6.0 | 0.00 | 0.00 | 0.07 | 70 | 1017.8 |
| 20260502210512 | 72 | 121 | 6.0 | 6.0 | 0.00 | 0.00 | 0.07 | 70 | 1017.8 |
| 20260502210211 | 72 | 185 | 0.0 | 6.0 | 0.00 | 0.00 | 0.07 | 70 | 1017.8 |
| 20260502205840 | 72 | 131 | 5.0 | 5.0 | 0.00 | 0.00 | 0.07 | 70 | 1017.7 |
| 20260502205112 | 72 | 45 | 0.0 | 5.0 | 0.00 | 0.00 | 0.07 | 70 | 1017.6 |
| 20260502204112 | 72 | 85 | 0.0 | 5.0 | 0.00 | 0.00 | 0.07 | 70 | 1017.7 |
| 20260502203631 | 72 | 130 | 5.0 | 5.0 | 0.00 | 0.00 | 0.07 | 70 | 1017.6 |
| 20260502202630 | 72 | 241 | 2.0 | 3.0 | 0.00 | 0.00 | 0.07 | 70 | 1017.6 |
| 20260502201629 | 72 | 209 | 0.0 | 4.0 | 0.00 | 0.00 | 0.07 | 70 | 1017.3 |
| 20260502200629 | 72 | 63 | 0.0 | 6.0 | 0.00 | 0.00 | 0.07 | 70 | 1017.3 |
| 20260502200251 | 72 | 145 | 5.0 | 5.0 | 0.00 | 0.00 | 0.07 | 70 | 1017.2 |
| 20260502195747 | 72 | 181 | 0.0 | 5.0 | 0.00 | 0.00 | 0.07 | 70 | 1017.3 |
| 20260502195419 | 72 | 197 | 5.0 | 5.0 | 0.00 | 0.00 | 0.07 | 70 | 1017.2 |
| 20260502195030 | 72 | 68 | 0.0 | 4.0 | 0.00 | 0.00 | 0.07 | 70 | 1017.2 |
| 20260502194029 | 72 | 39 | 0.0 | 6.0 | 0.00 | 0.00 | 0.07 | 70 | 1017.0 |
| 20260502193729 | 72 | 154 | 6.0 | 6.0 | 0.00 | 0.00 | 0.07 | 70 | 1017.1 |
| 20260502192907 | 72 | 177 | 1.0 | 4.0 | 0.00 | 0.00 | 0.07 | 70 | 1017.0 |
| 20260502191906 | 71 | 80 | 2.0 | 4.0 | 0.00 | 0.00 | 0.05 | 70 | 1016.8 |
| 20260502190904 | 71 | 70 | 0.0 | 4.0 | 0.00 | 0.00 | 0.05 | 70 | 1016.7 |
| 20260502185903 | 71 | 187 | 1.0 | 2.0 | 0.00 | 0.00 | 0.05 | 70 | 1016.8 |
| 20260502184903 | 71 | 101 | 2.0 | 3.0 | 0.00 | 0.00 | 0.05 | 70 | 1016.9 |
| 20260502183902 | 71 | 90 | 2.0 | 2.0 | 0.00 | 0.00 | 0.05 | 70 | 1016.8 |
| 20260502182900 | 71 | 226 | 0.0 | 4.0 | 0.00 | 0.00 | 0.05 | 70 | 1016.9 |
| 20260502180858 | 72 | 131 | 1.0 | 2.0 | 0.00 | 0.00 | 0.02 | 70 | 1016.8 |
| 20260502164129 | 72 | 157 | 2.0 | 2.0 | 0.00 | 0.00 | 0.00 | 70 | 1017.2 |
| 20260502163128 | 71 | 86 | 1.0 | 3.0 | 0.00 | 0.00 | 0.00 | 70 | 1017.0 |
| 20260502162128 | 71 | 169 | 0.0 | 4.0 | 0.00 | 0.00 | 0.00 | 70 | 1017.2 |
| 20260502161640 | 71 | 186 | 5.0 | 5.0 | 0.00 | 0.00 | 0.00 | 70 | 1017.1 |
| 20260502160758 | 71 | 186 | 0.0 | 1.0 | 0.00 | 0.00 | 0.00 | 70 | 1017.2 |
| 20260502150903 | 72 | 23 | 0.0 | 6.0 | 0.00 | 0.00 | 0.00 | 70 | 1017.5 |
| 20260502150602 | 72 | 167 | 5.0 | 5.0 | 0.00 | 0.00 | 0.00 | 70 | 1017.5 |
| 20260502150139 | 72 | 136 | 0.0 | 2.0 | 0.00 | 0.00 | 0.00 | 70 | 1017.6 |
| 20260502130127 | 73 | 46 | 1.0 | 3.0 | 0.00 | 0.00 | 0.00 | 70 | 1018.0 |
| 20260502123123 | 73 | 104 | 0.0 | 2.0 | 0.00 | 0.00 | 0.00 | 70 | 1018.1 |
| 20260502122122 | 73 | 99 | 1.0 | 2.0 | 0.00 | 0.00 | 0.00 | 70 | 1018.2 |
| 20260502121121 | 72 | 183 | 0.0 | 2.0 | 0.00 | 0.00 | 0.00 | 70 | 1018.4 |
| 20260502120120 | 72 | 169 | 0.0 | 2.0 | 0.00 | 0.00 | 0.00 | 70 | 1018.4 |
| 20260502115119 | 73 | 138 | 2.0 | 3.0 | 0.00 | 0.00 | 0.00 | 70 | 1018.3 |
| 20260502114118 | 73 | 124 | 1.0 | 2.0 | 0.00 | 0.00 | 0.00 | 70 | 1018.2 |
| 20260502113117 | 74 | 185 | 1.0 | 2.0 | 0.00 | 0.00 | 0.00 | 70 | 1018.0 |
| 20260502112116 | 74 | 161 | 1.0 | 4.0 | 0.00 | 0.00 | 0.00 | 70 | 1017.9 |
| 20260502111115 | 74 | 84 | 0.0 | 3.0 | 0.00 | 0.00 | 0.00 | 70 | 1017.9 |
| 20260502110114 | 74 | 58 | 1.0 | 3.0 | 0.00 | 0.00 | 0.00 | 70 | 1017.8 |
| 20260502105113 | 74 | 93 | 0.0 | 2.0 | 0.00 | 0.00 | 0.00 | 70 | 1018.0 |
| 20260502104112 | 74 | 78 | 1.0 | 1.0 | 0.00 | 0.00 | 0.00 | 70 | 1018.0 |
| 20260502103110 | 74 | 141 | 1.0 | 3.0 | 0.00 | 0.00 | 0.00 | 70 | 1018.2 |
| 20260502102110 | 75 | 114 | 1.0 | 2.0 | 0.00 | 0.00 | 0.00 | 70 | 1018.3 |
| 20260502101109 | 75 | 57 | 3.0 | 3.0 | 0.00 | 0.00 | 0.00 | 70 | 1018.2 |
| 20260502100108 | 75 | 0 | 0.0 | 3.0 | 0.00 | 0.00 | 0.00 | 70 | 1018.1 |
| 20260502091102 | 75 | 230 | 2.0 | 3.0 | 0.00 | 0.00 | 0.00 | 70 | 1017.4 |
| 20260502071049 | 78 | 45 | 0.0 | 3.0 | 0.00 | 0.00 | 0.00 | 70 | 1015.8 |
| 20260502070048 | 78 | 351 | 2.0 | 3.0 | 0.00 | 0.00 | 0.00 | 70 | 1015.7 |
| 20260502065047 | 78 | 72 | 2.0 | 3.0 | 0.00 | 0.00 | 0.00 | 70 | 1015.8 |
| 20260502064047 | 79 | 50 | 0.0 | 5.0 | 0.00 | 0.00 | 0.00 | 70 | 1015.6 |
| 20260502062842 | 79 | 73 | 0.0 | 3.0 | 0.00 | 0.00 | 0.00 | 70 | 1015.5 |
| 20260502061841 | 80 | 70 | 1.0 | 3.0 | 0.00 | 0.00 | 0.00 | 70 | 1015.5 |
| 20260502060840 | 81 | 11 | 2.0 | 3.0 | 0.00 | 0.00 | 0.00 | 70 | 1015.6 |
| 20260502055839 | 81 | 56 | 1.0 | 6.0 | 0.00 | 0.00 | 0.00 | 70 | 1015.5 |
| 20260502055533 | 81 | 23 | 6.0 | 6.0 | 0.00 | 0.00 | 0.00 | 70 | 1015.4 |
| 20260502054547 | 82 | 218 | 1.0 | 4.0 | 0.00 | 0.00 | 0.00 | 70 | 1015.4 |
| 20260502053547 | 83 | 5 | 1.0 | 4.0 | 0.00 | 0.00 | 0.00 | 70 | 1015.3 |
| 20260502052545 | 81 | 27 | 1.0 | 1.0 | 0.00 | 0.00 | 0.00 | 70 | 1015.3 |
| 20260502051544 | 81 | 52 | 2.0 | 3.0 | 0.00 | 0.00 | 0.00 | 70 | 1015.3 |
| 20260502050543 | 82 | 59 | 0.0 | 2.0 | 0.00 | 0.00 | 0.00 | 70 | 1015.3 |
| 20260502045542 | 83 | 69 | 0.0 | 2.0 | 0.00 | 0.00 | 0.00 | 70 | 1015.4 |
| 20260502044541 | 83 | 144 | 1.0 | 5.0 | 0.00 | 0.00 | 0.00 | 70 | 1015.4 |
| 20260502043540 | 84 | 1 | 1.0 | 4.0 | 0.00 | 0.00 | 0.00 | 70 | 1015.4 |
| 20260502042539 | 84 | 131 | 0.0 | 3.0 | 0.00 | 0.00 | 0.00 | 70 | 1015.6 |
| 20260502041538 | 84 | 63 | 0.0 | 3.0 | 0.00 | 0.00 | 0.00 | 70 | 1015.6 |
| 20260502040537 | 84 | 70 | 1.0 | 4.0 | 0.00 | 0.00 | 0.00 | 70 | 1015.7 |
| 20260502035536 | 85 | 56 | 2.0 | 3.0 | 0.00 | 0.00 | 0.00 | 70 | 1015.6 |
| 20260502033534 | 87 | 90 | 2.0 | 2.0 | 0.00 | 0.00 | 0.00 | 70 | 1015.7 |
| 20260502032532 | 85 | 66 | 2.0 | 4.0 | 0.00 | 0.00 | 0.00 | 70 | 1015.9 |
| 20260502031531 | 86 | 49 | 2.0 | 3.0 | 0.00 | 0.00 | 0.00 | 70 | 1016.1 |
| 20260502030530 | 86 | 61 | 1.0 | 4.0 | 0.00 | 0.00 | 0.00 | 70 | 1016.2 |
| 20260502023527 | 84 | 155 | 0.0 | 2.0 | 0.00 | 0.00 | 0.00 | 70 | 1016.6 |
| 20260502022526 | 84 | 70 | 2.0 | 5.0 | 0.00 | 0.00 | 0.00 | 70 | 1016.9 |
| 20260502020524 | 84 | 73 | 2.0 | 3.0 | 0.00 | 0.00 | 0.00 | 70 | 1017.2 |
| 20260502015523 | 83 | 65 | 2.0 | 2.0 | 0.00 | 0.00 | 0.00 | 70 | 1017.4 |
| 20260502014522 | 83 | 45 | 0.0 | 2.0 | 0.00 | 0.00 | 0.00 | 70 | 1017.5 |
| 20260502013521 | 83 | 78 | 0.0 | 3.0 | 0.00 | 0.00 | 0.00 | 70 | 1017.7 |
| 20260502011518 | 84 | 140 | 1.0 | 3.0 | 0.00 | 0.00 | 0.00 | 70 | 1018.0 |
| 20260502010518 | 83 | 82 | 0.0 | 3.0 | 0.00 | 0.00 | 0.00 | 70 | 1018.0 |